Time,TemperatureF,DewpointF,PressureIn,WindDirection,WindDirectionDegrees,WindSpeedMPH,WindSpeedGustMPH,Humidity,HourlyPrecipIn,Conditions,Clouds,dailyrainin,SoftwareType,DateUTC
2013-01-17 00:05:00,56.5,54.8,30.05,SW,232,0.0,1.0,94,0.00,,,0.00,Wunderground v.1.15,2013-01-17 05:05:00,
2013-01-17 00:10:00,56.4,54.7,30.05,SW,232,0.0,1.0,94,0.00,,,0.00,Wunderground v.1.15,2013-01-17 05:10:00,
2013-01-17 00:15:00,56.2,54.5,30.05,SW,232,0.0,1.0,94,0.00,,,0.00,Wunderground v.1.15,2013-01-17 05:15:00,
2013-01-17 00:24:00,56.3,54.9,30.05,SW,232,0.0,1.0,95,0.00,,,0.00,Wunderground v.1.15,2013-01-17 05:24:00,
2013-01-17 00:29:00,56.6,55.5,30.05,SW,231,0.0,0.0,96,0.00,,,0.00,Wunderground v.1.15,2013-01-17 05:29:00,
2013-01-17 00:34:00,56.1,54.4,30.05,SW,231,0.0,0.0,94,0.00,,,0.00,Wunderground v.1.15,2013-01-17 05:34:00,
2013-01-17 00:39:00,55.5,53.8,30.05,SW,232,0.0,0.0,94,0.00,,,0.00,Wunderground v.1.15,2013-01-17 05:39:00,
2013-01-17 00:44:00,55.1,53.4,30.05,SW,232,0.0,0.0,94,0.00,,,0.00,Wunderground v.1.15,2013-01-17 05:44:00,
2013-01-17 00:50:00,54.7,53.0,30.05,SW,232,0.0,0.0,94,0.00,,,0.00,Wunderground v.1.15,2013-01-17 05:50:00,
2013-01-17 00:55:00,54.9,53.8,30.05,SW,231,0.0,0.0,96,0.00,,,0.00,Wunderground v.1.15,2013-01-17 05:55:00,
2013-01-17 01:00:00,54.8,53.4,30.05,SW,232,0.0,0.0,95,0.00,,,0.00,Wunderground v.1.15,2013-01-17 06:00:00,
2013-01-17 01:05:00,54.3,52.6,30.05,SW,232,0.0,1.0,94,0.00,,,0.00,Wunderground v.1.15,2013-01-17 06:05:00,
2013-01-17 01:10:00,54.0,52.3,30.04,SW,232,0.0,1.0,94,0.00,,,0.00,Wunderground v.1.15,2013-01-17 06:10:00,
2013-01-17 01:15:00,53.8,52.4,30.04,SW,231,0.0,1.0,95,0.00,,,0.00,Wunderground v.1.15,2013-01-17 06:15:00,
2013-01-17 01:20:00,53.8,52.4,30.04,SW,232,0.0,1.0,95,0.00,,,0.00,Wunderground v.1.15,2013-01-17 06:20:00,
2013-01-17 01:30:00,53.8,52.4,30.04,SW,232,0.0,0.0,95,0.00,,,0.00,Wunderground v.1.15,2013-01-17 06:30:00,
2013-01-17 01:35:00,53.7,52.3,30.04,SW,232,0.0,0.0,95,0.00,,,0.00,Wunderground v.1.15,2013-01-17 06:35:00,
2013-01-17 01:40:00,53.6,52.2,30.04,SW,232,0.0,0.0,95,0.00,,,0.00,Wunderground v.1.15,2013-01-17 06:40:00,
2013-01-17 01:45:00,53.4,52.0,30.04,SW,232,0.0,0.0,95,0.00,,,0.00,Wunderground v.1.15,2013-01-17 06:45:00,
2013-01-17 01:50:00,53.4,52.0,30.04,SW,232,0.0,0.0,95,0.00,,,0.00,Wunderground v.1.15,2013-01-17 06:50:00,
2013-01-17 02:00:00,54.0,53.2,30.04,SW,232,0.0,0.0,97,0.00,,,0.00,Wunderground v.1.15,2013-01-17 07:00:00,
2013-01-17 02:05:00,53.7,52.3,30.04,SW,232,0.0,0.0,95,0.00,,,0.00,Wunderground v.1.15,2013-01-17 07:05:00,
2013-01-17 02:10:00,53.4,52.3,30.04,SW,232,0.0,0.0,96,0.00,,,0.00,Wunderground v.1.15,2013-01-17 07:10:00,
2013-01-17 02:15:00,53.3,52.2,30.04,SW,231,0.0,0.0,96,0.00,,,0.00,Wunderground v.1.15,2013-01-17 07:15:00,
2013-01-17 02:20:00,53.2,52.1,30.04,SW,232,0.0,0.0,96,0.00,,,0.00,Wunderground v.1.15,2013-01-17 07:20:00,
2013-01-17 02:25:00,53.5,52.4,30.04,SW,232,0.0,0.0,96,0.00,,,0.00,Wunderground v.1.15,2013-01-17 07:25:00,
2013-01-17 02:35:00,53.1,51.7,30.04,SW,231,0.0,0.0,95,0.00,,,0.00,Wunderground v.1.15,2013-01-17 07:35:00,
2013-01-17 02:40:00,52.9,51.8,30.04,SW,232,0.0,0.0,96,0.00,,,0.00,Wunderground v.1.15,2013-01-17 07:40:00,
2013-01-17 02:45:00,52.8,51.7,30.04,SW,232,0.0,0.0,96,0.00,,,0.00,Wunderground v.1.15,2013-01-17 07:45:00,
2013-01-17 02:50:00,53.1,52.3,30.04,SW,232,0.0,0.0,97,0.00,,,0.00,Wunderground v.1.15,2013-01-17 07:50:00,
2013-01-17 02:55:00,53.0,51.9,30.03,SW,232,0.0,0.0,96,0.00,,,0.00,Wunderground v.1.15,2013-01-17 07:55:00,
2013-01-17 03:05:00,52.6,51.5,30.03,SW,232,0.0,0.0,96,0.00,,,0.00,Wunderground v.1.15,2013-01-17 08:05:00,
2013-01-17 03:10:00,52.4,51.3,30.03,SW,232,0.0,0.0,96,0.00,,,0.00,Wunderground v.1.15,2013-01-17 08:10:00,
2013-01-17 03:15:00,52.2,51.1,30.03,SW,232,0.0,0.0,96,0.00,,,0.00,Wunderground v.1.15,2013-01-17 08:15:00,
2013-01-17 03:20:00,52.0,50.9,30.03,SW,232,0.0,0.0,96,0.00,,,0.00,Wunderground v.1.15,2013-01-17 08:20:00,
2013-01-17 03:25:00,51.8,50.7,30.03,SW,232,0.0,0.0,96,0.00,,,0.00,Wunderground v.1.15,2013-01-17 08:25:00,
2013-01-17 03:30:00,51.8,50.7,30.03,SW,231,0.0,0.0,96,0.00,,,0.00,Wunderground v.1.15,2013-01-17 08:30:00,
2013-01-17 03:40:00,52.8,52.0,30.03,SW,232,0.0,0.0,97,0.00,,,0.00,Wunderground v.1.15,2013-01-17 08:40:00,
2013-01-17 03:45:00,54.0,53.4,30.03,SW,231,0.0,0.0,98,0.00,,,0.00,Wunderground v.1.15,2013-01-17 08:45:00,
2013-01-17 03:50:00,53.8,53.2,30.03,SW,232,0.0,0.0,98,0.00,,,0.00,Wunderground v.1.15,2013-01-17 08:50:00,
2013-01-17 03:55:00,54.3,53.7,30.02,SW,232,0.0,0.0,98,0.00,,,0.00,Wunderground v.1.15,2013-01-17 08:55:00,
2013-01-17 04:00:00,55.1,54.5,30.03,SW,232,0.0,0.0,98,0.00,,,0.00,Wunderground v.1.15,2013-01-17 09:00:00,
2013-01-17 04:10:00,56.0,55.4,30.03,SW,231,0.0,0.0,98,0.00,,,0.00,Wunderground v.1.15,2013-01-17 09:10:00,
2013-01-17 04:15:00,56.0,55.4,30.03,SW,231,0.0,0.0,98,0.00,,,0.00,Wunderground v.1.15,2013-01-17 09:15:00,
2013-01-17 04:20:00,56.1,55.5,30.03,SW,232,0.0,0.0,98,0.00,,,0.00,Wunderground v.1.15,2013-01-17 09:20:00,
2013-01-17 04:25:00,56.2,55.6,30.03,SW,232,0.0,0.0,98,0.00,,,0.00,Wunderground v.1.15,2013-01-17 09:25:00,
2013-01-17 04:30:00,56.1,55.3,30.03,SW,232,0.0,0.0,97,0.00,,,0.00,Wunderground v.1.15,2013-01-17 09:30:00,
2013-01-17 04:35:00,56.1,55.3,30.03,SW,232,0.0,0.0,97,0.00,,,0.00,Wunderground v.1.15,2013-01-17 09:35:00,
2013-01-17 04:44:00,55.7,54.9,30.02,SW,231,0.0,0.0,97,0.00,,,0.00,Wunderground v.1.15,2013-01-17 09:44:00,
2013-01-17 04:50:00,55.1,54.0,30.03,SW,232,0.0,0.0,96,0.00,,,0.00,Wunderground v.1.15,2013-01-17 09:50:00,
2013-01-17 04:55:00,54.8,53.7,30.02,SW,232,0.0,0.0,96,0.00,,,0.00,Wunderground v.1.15,2013-01-17 09:55:00,
2013-01-17 05:00:00,54.8,54.0,30.02,SW,232,0.0,0.0,97,0.00,,,0.00,Wunderground v.1.15,2013-01-17 10:00:00,
2013-01-17 05:05:00,54.1,53.0,30.02,SW,231,0.0,0.0,96,0.00,,,0.00,Wunderground v.1.15,2013-01-17 10:05:00,
2013-01-17 05:10:00,54.2,53.4,30.02,SW,232,0.0,0.0,97,0.00,,,0.00,Wunderground v.1.15,2013-01-17 10:10:00,
2013-01-17 05:15:00,54.8,54.2,30.02,SW,231,0.0,0.0,98,0.00,,,0.00,Wunderground v.1.15,2013-01-17 10:15:00,
2013-01-17 05:20:00,55.1,54.5,30.02,SW,231,0.0,0.0,98,0.00,,,0.00,Wunderground v.1.15,2013-01-17 10:20:00,
2013-01-17 05:30:00,55.3,54.7,30.02,SSE,149,0.0,1.0,98,0.00,,,0.00,Wunderground v.1.15,2013-01-17 10:30:00,
2013-01-17 05:35:00,56.2,55.6,30.02,SSE,148,0.0,1.0,98,0.00,,,0.00,Wunderground v.1.15,2013-01-17 10:35:00,
2013-01-17 05:40:00,57.3,56.7,30.02,SE,142,0.0,0.0,98,0.00,,,0.00,Wunderground v.1.15,2013-01-17 10:40:00,
2013-01-17 05:45:00,57.8,57.2,30.02,SW,221,0.0,0.0,98,0.00,,,0.00,Wunderground v.1.15,2013-01-17 10:45:00,
2013-01-17 05:50:00,58.4,57.8,30.02,SW,222,0.0,0.0,98,0.00,,,0.00,Wunderground v.1.15,2013-01-17 10:50:00,
2013-01-17 05:59:00,59.1,58.5,30.02,SW,221,0.0,0.0,98,0.00,,,0.00,Wunderground v.1.15,2013-01-17 10:59:00,
2013-01-17 06:04:00,58.8,58.2,30.02,SW,217,0.0,0.0,98,0.00,,,0.00,Wunderground v.1.15,2013-01-17 11:04:00,
2013-01-17 06:10:00,58.6,58.0,30.02,SW,217,0.0,0.0,98,0.00,,,0.00,Wunderground v.1.15,2013-01-17 11:10:00,
2013-01-17 06:15:00,58.4,57.8,30.02,SW,215,0.0,0.0,98,0.00,,,0.00,Wunderground v.1.15,2013-01-17 11:15:00,
2013-01-17 06:20:00,58.6,58.0,30.02,SE,131,0.0,0.0,98,0.00,,,0.00,Wunderground v.1.15,2013-01-17 11:20:00,
2013-01-17 06:25:00,59.0,58.4,30.02,WSW,241,0.0,0.0,98,0.00,,,0.00,Wunderground v.1.15,2013-01-17 11:25:00,
2013-01-17 06:30:00,59.0,58.4,30.02,South,191,0.0,0.0,98,0.00,,,0.00,Wunderground v.1.15,2013-01-17 11:30:00,
2013-01-17 06:39:00,59.3,58.7,30.02,WSW,250,0.0,0.0,98,0.00,,,0.00,Wunderground v.1.15,2013-01-17 11:39:00,
2013-01-17 06:44:00,60.0,59.4,30.02,SW,221,0.0,0.0,98,0.00,,,0.00,Wunderground v.1.15,2013-01-17 11:44:00,
2013-01-17 06:50:00,60.7,60.1,30.02,WSW,240,0.0,0.0,98,0.00,,,0.00,Wunderground v.1.15,2013-01-17 11:50:00,
2013-01-17 06:55:00,61.0,60.4,30.02,WSW,254,0.0,0.0,98,0.00,,,0.00,Wunderground v.1.15,2013-01-17 11:55:00,
2013-01-17 07:00:00,61.4,60.8,30.02,WSW,250,0.0,0.0,98,0.00,,,0.00,Wunderground v.1.15,2013-01-17 12:00:00,
2013-01-17 07:05:00,61.7,61.1,30.02,SSW,205,1.0,1.0,98,0.00,,,0.00,Wunderground v.1.15,2013-01-17 12:05:00,
2013-01-17 07:10:00,61.8,61.2,30.03,SSW,210,0.0,3.0,98,0.00,,,0.00,Wunderground v.1.15,2013-01-17 12:10:00,
2013-01-17 07:15:00,61.9,61.3,30.03,SW,225,0.0,3.0,98,0.00,,,0.00,Wunderground v.1.15,2013-01-17 12:15:00,
2013-01-17 07:25:00,62.0,61.4,30.03,SSW,212,0.0,3.0,98,0.00,,,0.00,Wunderground v.1.15,2013-01-17 12:25:00,
2013-01-17 07:30:00,62.0,61.4,30.03,West,280,0.0,0.0,98,0.00,,,0.00,Wunderground v.1.15,2013-01-17 12:30:00,
2013-01-17 07:35:00,62.1,61.5,30.03,SSW,193,0.0,0.0,98,0.00,,,0.00,Wunderground v.1.15,2013-01-17 12:35:00,
2013-01-17 07:40:00,62.1,61.5,30.03,SSE,149,0.0,0.0,98,0.00,,,0.01,Wunderground v.1.15,2013-01-17 12:40:00,
2013-01-17 07:45:00,62.4,61.8,30.03,SE,146,0.0,0.0,98,0.00,,,0.01,Wunderground v.1.15,2013-01-17 12:45:00,
2013-01-17 07:55:00,63.1,62.5,30.03,WSW,242,0.0,1.0,98,0.00,,,0.01,Wunderground v.1.15,2013-01-17 12:55:00,
2013-01-17 08:00:00,63.6,63.0,30.03,SSW,207,1.0,2.0,98,0.00,,,0.01,Wunderground v.1.15,2013-01-17 13:00:00,
2013-01-17 08:05:00,64.1,63.5,30.03,SSE,153,2.0,3.0,98,0.00,,,0.01,Wunderground v.1.15,2013-01-17 13:05:00,
2013-01-17 08:10:00,64.6,64.0,30.03,SSW,201,1.0,3.0,98,0.00,,,0.01,Wunderground v.1.15,2013-01-17 13:10:00,
2013-01-17 08:15:00,64.9,64.3,30.03,SSW,195,1.0,3.0,98,0.00,,,0.01,Wunderground v.1.15,2013-01-17 13:15:00,
2013-01-17 08:20:00,65.2,64.3,30.03,WSW,257,1.0,3.0,97,0.00,,,0.01,Wunderground v.1.15,2013-01-17 13:20:00,
2013-01-17 08:30:00,65.9,65.0,30.04,WSW,245,2.0,2.0,97,0.00,,,0.01,Wunderground v.1.15,2013-01-17 13:30:00,
2013-01-17 08:35:00,66.2,65.3,30.04,SW,224,3.0,3.0,97,0.00,,,0.01,Wunderground v.1.15,2013-01-17 13:35:00,
2013-01-17 08:40:00,66.7,65.8,30.04,SSW,195,2.0,2.0,97,0.00,,,0.01,Wunderground v.1.15,2013-01-17 13:40:00,
2013-01-17 08:45:00,67.0,65.8,30.04,SW,221,2.0,3.0,96,0.00,,,0.01,Wunderground v.1.15,2013-01-17 13:45:00,
2013-01-17 08:50:00,67.4,66.2,30.04,SW,218,2.0,7.0,96,0.00,,,0.01,Wunderground v.1.15,2013-01-17 13:50:00,
2013-01-17 09:00:00,68.2,66.7,30.04,SW,235,3.0,5.0,95,0.00,,,0.01,Wunderground v.1.15,2013-01-17 14:00:00,
2013-01-17 09:05:00,68.7,66.9,30.04,WSW,242,3.0,8.0,94,0.00,,,0.01,Wunderground v.1.15,2013-01-17 14:05:00,
2013-01-17 09:10:00,69.0,66.9,30.05,SSW,208,4.0,4.0,93,0.00,,,0.01,Wunderground v.1.15,2013-01-17 14:10:00,
2013-01-17 09:15:00,69.3,66.9,30.05,WSW,242,4.0,4.0,92,0.00,,,0.01,Wunderground v.1.15,2013-01-17 14:15:00,
2013-01-17 09:20:00,69.8,67.1,30.05,SSW,210,4.0,4.0,91,0.00,,,0.01,Wunderground v.1.15,2013-01-17 14:20:00,
2013-01-17 09:25:00,70.2,67.1,30.05,SW,218,3.0,4.0,90,0.00,,,0.01,Wunderground v.1.15,2013-01-17 14:25:00,
2013-01-17 09:35:00,70.5,67.1,30.05,SE,143,4.0,6.0,89,0.00,,,0.01,Wunderground v.1.15,2013-01-17 14:35:00,
2013-01-17 09:40:00,70.8,67.1,30.05,SW,224,4.0,4.0,88,0.00,,,0.01,Wunderground v.1.15,2013-01-17 14:40:00,
2013-01-17 09:45:00,71.3,67.2,30.05,SSW,200,4.0,6.0,87,0.00,,,0.01,Wunderground v.1.15,2013-01-17 14:45:00,
2013-01-17 09:50:00,71.5,67.4,30.05,SW,231,4.0,4.0,87,0.00,,,0.01,Wunderground v.1.15,2013-01-17 14:50:00,
2013-01-17 09:55:00,72.0,67.6,30.05,WSW,249,3.0,4.0,86,0.00,,,0.01,Wunderground v.1.15,2013-01-17 14:55:00,
2013-01-17 10:04:00,72.6,67.8,30.05,WSW,240,4.0,11.0,85,0.00,,,0.01,Wunderground v.1.15,2013-01-17 15:04:00,
2013-01-17 10:09:00,72.7,67.2,30.05,SW,226,6.0,6.0,83,0.00,,,0.01,Wunderground v.1.15,2013-01-17 15:09:00,
2013-01-17 10:15:00,73.0,67.2,30.04,SW,229,6.0,8.0,82,0.00,,,0.01,Wunderground v.1.15,2013-01-17 15:15:00,
2013-01-17 10:20:00,72.7,66.9,30.05,SSW,197,6.0,8.0,82,0.00,,,0.01,Wunderground v.1.15,2013-01-17 15:20:00,
2013-01-17 10:25:00,72.3,66.8,30.05,SW,214,7.0,8.0,83,0.00,,,0.01,Wunderground v.1.15,2013-01-17 15:25:00,
2013-01-17 10:30:00,72.1,67.0,30.05,WSW,250,5.0,5.0,84,0.00,,,0.01,Wunderground v.1.15,2013-01-17 15:30:00,
2013-01-17 10:35:00,72.0,66.9,30.05,SW,229,4.0,9.0,84,0.00,,,0.01,Wunderground v.1.15,2013-01-17 15:35:00,
2013-01-17 10:40:00,71.6,66.5,30.05,SSE,163,5.0,5.0,84,0.00,,,0.01,Wunderground v.1.15,2013-01-17 15:40:00,
2013-01-17 10:45:00,71.4,66.7,30.05,SW,217,5.0,5.0,85,0.00,,,0.01,Wunderground v.1.15,2013-01-17 15:45:00,
2013-01-17 10:50:00,71.2,66.8,30.04,SW,214,3.0,4.0,86,0.00,,,0.01,Wunderground v.1.15,2013-01-17 15:50:00,
2013-01-17 10:55:00,71.4,66.7,30.04,SSW,203,4.0,4.0,85,0.00,,,0.01,Wunderground v.1.15,2013-01-17 15:55:00,
2013-01-17 11:00:00,71.7,66.9,30.03,SW,222,4.0,4.0,85,0.00,,,0.01,Wunderground v.1.15,2013-01-17 16:00:00,
2013-01-17 11:10:00,72.5,66.7,30.03,WSW,251,4.0,11.0,82,0.00,,,0.01,Wunderground v.1.15,2013-01-17 16:10:00,
2013-01-17 11:15:00,72.7,66.5,30.03,SSW,201,6.0,11.0,81,0.00,,,0.01,Wunderground v.1.15,2013-01-17 16:15:00,
2013-01-17 11:20:00,72.9,66.7,30.03,SW,236,5.0,11.0,81,0.00,,,0.01,Wunderground v.1.15,2013-01-17 16:20:00,
2013-01-17 11:25:00,73.1,66.9,30.03,SW,226,5.0,11.0,81,0.00,,,0.01,Wunderground v.1.15,2013-01-17 16:25:00,
2013-01-17 11:30:00,73.3,66.8,30.03,WSW,252,5.0,5.0,80,0.00,,,0.01,Wunderground v.1.15,2013-01-17 16:30:00,
2013-01-17 11:40:00,72.9,66.0,30.03,WSW,246,5.0,5.0,79,0.00,,,0.01,Wunderground v.1.15,2013-01-17 16:40:00,
2013-01-17 11:45:00,71.2,64.0,30.03,NNW,339,4.0,5.0,78,0.00,,,0.01,Wunderground v.1.15,2013-01-17 16:45:00,
2013-01-17 11:50:00,70.1,63.6,30.03,NNW,341,2.0,6.0,80,0.00,,,0.01,Wunderground v.1.15,2013-01-17 16:50:00,
2013-01-17 11:55:00,69.1,63.0,30.03,West,270,2.0,7.0,81,0.00,,,0.01,Wunderground v.1.15,2013-01-17 16:55:00,
2013-01-17 12:00:00,68.0,63.0,30.04,SW,228,3.0,5.0,84,0.00,,,0.01,Wunderground v.1.15,2013-01-17 17:00:00,
2013-01-17 12:05:00,67.0,63.0,30.03,SW,217,3.0,13.0,87,0.00,,,0.02,Wunderground v.1.15,2013-01-17 17:05:00,
2013-01-17 12:15:00,66.5,63.8,30.03,WSW,239,1.0,3.0,91,0.00,,,0.02,Wunderground v.1.15,2013-01-17 17:15:00,
2013-01-17 12:20:00,66.6,63.9,30.03,WSW,252,2.0,13.0,91,0.00,,,0.02,Wunderground v.1.15,2013-01-17 17:20:00,
2013-01-17 12:25:00,66.5,63.5,30.03,NNW,339,2.0,13.0,90,0.00,,,0.02,Wunderground v.1.15,2013-01-17 17:25:00,
2013-01-17 12:30:00,66.6,63.6,30.02,NW,313,2.0,2.0,90,0.00,,,0.02,Wunderground v.1.15,2013-01-17 17:30:00,
2013-01-17 12:35:00,66.6,63.6,30.02,SSE,149,2.0,2.0,90,0.00,,,0.02,Wunderground v.1.15,2013-01-17 17:35:00,
2013-01-17 12:45:00,67.2,63.5,30.02,NNW,336,2.0,3.0,88,0.00,,,0.02,Wunderground v.1.15,2013-01-17 17:45:00,
2013-01-17 12:50:00,66.8,62.8,30.02,SW,222,2.0,2.0,87,0.00,,,0.02,Wunderground v.1.15,2013-01-17 17:50:00,
2013-01-17 12:55:00,66.1,62.1,30.02,SSW,195,3.0,3.0,87,0.00,,,0.02,Wunderground v.1.15,2013-01-17 17:55:00,
2013-01-17 13:00:00,65.5,61.9,30.02,WSW,246,3.0,3.0,88,0.00,,,0.02,Wunderground v.1.15,2013-01-17 18:00:00,
2013-01-17 13:05:00,65.2,61.6,30.02,ENE,59,2.0,15.0,88,0.00,,,0.02,Wunderground v.1.15,2013-01-17 18:05:00,
2013-01-17 13:10:00,65.1,61.5,30.02,South,183,2.0,15.0,88,0.00,,,0.02,Wunderground v.1.15,2013-01-17 18:10:00,
2013-01-17 13:20:00,65.2,61.6,30.01,WSW,248,3.0,15.0,88,0.00,,,0.02,Wunderground v.1.15,2013-01-17 18:20:00,
2013-01-17 13:25:00,65.4,61.4,30.01,WNW,282,3.0,15.0,87,0.00,,,0.02,Wunderground v.1.15,2013-01-17 18:25:00,
2013-01-17 13:30:00,65.3,60.7,30.01,WSW,240,3.0,6.0,85,0.00,,,0.02,Wunderground v.1.15,2013-01-17 18:30:00,
2013-01-17 13:35:00,64.9,60.3,30.01,SW,219,3.0,6.0,85,0.00,,,0.02,Wunderground v.1.15,2013-01-17 18:35:00,
2013-01-17 13:40:00,64.5,59.9,30.01,South,188,3.0,3.0,85,0.00,,,0.02,Wunderground v.1.15,2013-01-17 18:40:00,
2013-01-17 13:50:00,63.8,59.2,30.01,SE,133,2.0,2.0,85,0.00,,,0.02,Wunderground v.1.15,2013-01-17 18:50:00,
2013-01-17 13:55:00,63.2,58.6,30.01,NNE,31,2.0,3.0,85,0.00,,,0.02,Wunderground v.1.15,2013-01-17 18:55:00,
2013-01-17 14:00:00,62.8,58.5,30.02,NW,325,2.0,2.0,86,0.00,,,0.02,Wunderground v.1.15,2013-01-17 19:00:00,
2013-01-17 14:05:00,61.8,57.9,30.02,NNW,348,3.0,6.0,87,0.00,,,0.02,Wunderground v.1.15,2013-01-17 19:05:00,
2013-01-17 14:10:00,60.8,57.2,30.02,SSW,194,4.0,4.0,88,0.00,,,0.02,Wunderground v.1.15,2013-01-17 19:10:00,
2013-01-17 14:15:00,60.2,56.6,30.02,NNW,346,4.0,8.0,88,0.00,,,0.02,Wunderground v.1.15,2013-01-17 19:15:00,
2013-01-17 14:20:00,60.0,56.1,30.02,WNW,302,4.0,4.0,87,0.00,,,0.02,Wunderground v.1.15,2013-01-17 19:20:00,
2013-01-17 14:25:00,60.0,56.1,30.02,South,176,3.0,5.0,87,0.00,,,0.02,Wunderground v.1.15,2013-01-17 19:25:00,
2013-01-17 14:30:00,59.8,55.3,30.03,SW,218,3.0,3.0,85,0.00,,,0.02,Wunderground v.1.15,2013-01-17 19:30:00,
2013-01-17 14:39:00,59.9,55.1,30.03,SSW,199,4.0,4.0,84,0.00,,,0.02,Wunderground v.1.15,2013-01-17 19:39:00,
2013-01-17 14:44:00,60.0,55.2,30.03,SW,235,3.0,7.0,84,0.00,,,0.02,Wunderground v.1.15,2013-01-17 19:44:00,
2013-01-17 14:50:00,60.1,55.2,30.03,WSW,253,3.0,3.0,84,0.00,,,0.02,Wunderground v.1.15,2013-01-17 19:50:00,
2013-01-17 14:55:00,60.2,55.0,30.03,ESE,104,3.0,3.0,83,0.00,,,0.02,Wunderground v.1.15,2013-01-17 19:55:00,
2013-01-17 15:00:00,60.1,54.6,30.03,NNE,32,2.0,4.0,82,0.00,,,0.02,Wunderground v.1.15,2013-01-17 20:00:00,
2013-01-17 15:05:00,59.9,54.4,30.03,SW,219,3.0,5.0,82,0.00,,,0.02,Wunderground v.1.15,2013-01-17 20:05:00,
2013-01-17 15:10:00,59.7,54.2,30.03,North,5,3.0,3.0,82,0.00,,,0.02,Wunderground v.1.15,2013-01-17 20:10:00,
2013-01-17 15:15:00,59.5,54.3,30.03,SW,221,3.0,4.0,83,0.00,,,0.02,Wunderground v.1.15,2013-01-17 20:15:00,
2013-01-17 15:25:00,58.3,54.1,30.04,NW,316,3.0,3.0,86,0.00,,,0.02,Wunderground v.1.15,2013-01-17 20:25:00,
2013-01-17 15:30:00,57.9,53.7,30.04,NE,38,2.0,2.0,86,0.00,,,0.02,Wunderground v.1.15,2013-01-17 20:30:00,
2013-01-17 15:35:00,57.9,53.7,30.04,SE,146,2.0,2.0,86,0.00,,,0.02,Wunderground v.1.15,2013-01-17 20:35:00,
2013-01-17 15:40:00,58.0,53.5,30.04,NW,320,2.0,2.0,85,0.00,,,0.02,Wunderground v.1.15,2013-01-17 20:40:00,
2013-01-17 15:45:00,58.2,53.7,30.04,WNW,287,2.0,2.0,85,0.00,,,0.02,Wunderground v.1.15,2013-01-17 20:45:00,
2013-01-17 15:50:00,58.4,53.6,30.04,WNW,294,2.0,2.0,84,0.00,,,0.02,Wunderground v.1.15,2013-01-17 20:50:00,
2013-01-17 16:00:00,58.5,53.4,30.05,SW,226,2.0,2.0,83,0.00,,,0.02,Wunderground v.1.15,2013-01-17 21:00:00,
2013-01-17 16:05:00,58.5,52.7,30.05,NNW,338,1.0,13.0,81,0.00,,,0.02,Wunderground v.1.15,2013-01-17 21:05:00,
2013-01-17 16:10:00,58.6,52.4,30.05,WNW,292,2.0,2.0,80,0.00,,,0.02,Wunderground v.1.15,2013-01-17 21:10:00,
2013-01-17 16:15:00,58.7,52.2,30.05,NW,323,1.0,3.0,79,0.00,,,0.02,Wunderground v.1.15,2013-01-17 21:15:00,
2013-01-17 16:20:00,58.8,52.0,30.05,ENE,78,2.0,2.0,78,0.00,,,0.02,Wunderground v.1.15,2013-01-17 21:20:00,
2013-01-17 16:30:00,58.9,51.7,30.05,SSW,201,2.0,2.0,77,0.00,,,0.02,Wunderground v.1.15,2013-01-17 21:30:00,
2013-01-17 16:35:00,58.8,51.2,30.05,SW,235,2.0,2.0,76,0.00,,,0.02,Wunderground v.1.15,2013-01-17 21:35:00,
2013-01-17 16:40:00,58.7,50.8,30.06,NNW,346,2.0,4.0,75,0.00,,,0.02,Wunderground v.1.15,2013-01-17 21:40:00,
2013-01-17 16:45:00,58.6,50.3,30.06,SSW,200,2.0,4.0,74,0.00,,,0.02,Wunderground v.1.15,2013-01-17 21:45:00,
2013-01-17 16:50:00,58.6,50.3,30.06,NNW,329,2.0,2.0,74,0.00,,,0.02,Wunderground v.1.15,2013-01-17 21:50:00,
2013-01-17 16:55:00,58.6,50.0,30.05,NW,315,2.0,2.0,73,0.00,,,0.02,Wunderground v.1.15,2013-01-17 21:55:00,
2013-01-17 17:05:00,58.4,49.8,30.06,SW,217,2.0,8.0,73,0.00,,,0.02,Wunderground v.1.15,2013-01-17 22:05:00,
2013-01-17 17:10:00,58.4,49.8,30.06,NNW,337,2.0,8.0,73,0.00,,,0.02,Wunderground v.1.15,2013-01-17 22:10:00,
2013-01-17 17:15:00,58.4,49.8,30.06,WSW,246,2.0,8.0,73,0.00,,,0.02,Wunderground v.1.15,2013-01-17 22:15:00,
2013-01-17 17:20:00,58.4,49.8,30.06,NNW,335,2.0,2.0,73,0.00,,,0.02,Wunderground v.1.15,2013-01-17 22:20:00,
2013-01-17 17:25:00,58.4,49.8,30.06,NNE,31,2.0,2.0,73,0.00,,,0.02,Wunderground v.1.15,2013-01-17 22:25:00,
2013-01-17 17:35:00,58.2,49.2,30.06,West,268,1.0,1.0,72,0.00,,,0.02,Wunderground v.1.15,2013-01-17 22:35:00,
2013-01-17 17:40:00,58.0,49.0,30.06,SE,129,2.0,3.0,72,0.00,,,0.02,Wunderground v.1.15,2013-01-17 22:40:00,
2013-01-17 17:45:00,57.8,48.5,30.06,North,350,3.0,4.0,71,0.00,,,0.02,Wunderground v.1.15,2013-01-17 22:45:00,
2013-01-17 17:50:00,57.5,48.2,30.06,WSW,246,3.0,3.0,71,0.00,,,0.02,Wunderground v.1.15,2013-01-17 22:50:00,
2013-01-17 17:55:00,57.2,47.9,30.07,WNW,302,2.0,3.0,71,0.00,,,0.02,Wunderground v.1.15,2013-01-17 22:55:00,
2013-01-17 18:00:00,56.9,46.8,30.07,NW,315,3.0,4.0,69,0.00,,,0.02,Wunderground v.1.15,2013-01-17 23:00:00,
2013-01-17 18:09:00,56.5,46.4,30.07,NNW,328,2.0,9.0,69,0.00,,,0.02,Wunderground v.1.15,2013-01-17 23:09:00,
2013-01-17 18:15:00,56.3,46.3,30.08,West,278,2.0,9.0,69,0.00,,,0.02,Wunderground v.1.15,2013-01-17 23:15:00,
2013-01-17 18:20:00,56.0,46.0,30.08,West,273,1.0,9.0,69,0.00,,,0.02,Wunderground v.1.15,2013-01-17 23:20:00,
2013-01-17 18:25:00,55.8,46.2,30.08,ESE,116,1.0,9.0,70,0.00,,,0.02,Wunderground v.1.15,2013-01-17 23:25:00,
2013-01-17 18:30:00,55.5,46.2,30.08,SW,214,1.0,1.0,71,0.00,,,0.02,Wunderground v.1.15,2013-01-17 23:30:00,
2013-01-17 18:39:00,55.1,46.2,30.08,SSW,205,1.0,2.0,72,0.00,,,0.02,Wunderground v.1.15,2013-01-17 23:39:00,
2013-01-17 18:44:00,54.9,46.4,30.08,North,4,1.0,2.0,73,0.00,,,0.02,Wunderground v.1.15,2013-01-17 23:44:00,
2013-01-17 18:49:00,54.7,46.2,30.08,SSE,162,1.0,1.0,73,0.00,,,0.02,Wunderground v.1.15,2013-01-17 23:49:00,
2013-01-17 18:54:00,54.5,46.4,30.08,WSW,249,0.0,1.0,74,0.00,,,0.02,Wunderground v.1.15,2013-01-17 23:54:00,
2013-01-17 18:59:00,54.3,46.5,30.08,WSW,246,0.0,3.0,75,0.00,,,0.02,Wunderground v.1.15,2013-01-17 23:59:00,
2013-01-17 19:04:00,54.3,46.5,30.08,WSW,252,0.0,11.0,75,0.00,,,0.02,Wunderground v.1.15,2013-01-18 00:04:00,
2013-01-17 19:10:00,54.1,46.7,30.09,WNW,301,0.0,11.0,76,0.00,,,0.02,Wunderground v.1.15,2013-01-18 00:10:00,
2013-01-17 19:15:00,54.1,46.7,30.09,WSW,252,1.0,11.0,76,0.00,,,0.02,Wunderground v.1.15,2013-01-18 00:15:00,
2013-01-17 19:20:00,54.1,46.7,30.09,SSW,212,1.0,1.0,76,0.00,,,0.02,Wunderground v.1.15,2013-01-18 00:20:00,
2013-01-17 19:25:00,54.4,47.0,30.09,North,354,1.0,1.0,76,0.00,,,0.02,Wunderground v.1.15,2013-01-18 00:25:00,
2013-01-17 19:30:00,54.6,47.2,30.09,SW,224,1.0,1.0,76,0.00,,,0.02,Wunderground v.1.15,2013-01-18 00:30:00,
2013-01-17 19:35:00,54.9,47.5,30.09,WNW,294,1.0,1.0,76,0.00,,,0.02,Wunderground v.1.15,2013-01-18 00:35:00,
2013-01-17 19:45:00,55.3,47.9,30.10,SW,219,1.0,2.0,76,0.00,,,0.02,Wunderground v.1.15,2013-01-18 00:45:00,
2013-01-17 19:50:00,55.4,47.6,30.10,West,259,1.0,1.0,75,0.00,,,0.02,Wunderground v.1.15,2013-01-18 00:50:00,
2013-01-17 19:55:00,55.6,47.8,30.10,WSW,256,1.0,1.0,75,0.00,,,0.02,Wunderground v.1.15,2013-01-18 00:55:00,
2013-01-17 20:00:00,55.7,47.9,30.10,WSW,239,2.0,2.0,75,0.00,,,0.02,Wunderground v.1.15,2013-01-18 01:00:00,
2013-01-17 20:05:00,55.8,47.6,30.10,West,260,2.0,7.0,74,0.00,,,0.02,Wunderground v.1.15,2013-01-18 01:05:00,
2013-01-17 20:15:00,55.8,47.3,30.10,WSW,256,4.0,7.0,73,0.00,,,0.02,Wunderground v.1.15,2013-01-18 01:15:00,
2013-01-17 20:20:00,55.8,47.3,30.10,WSW,249,4.0,4.0,73,0.00,,,0.02,Wunderground v.1.15,2013-01-18 01:20:00,
2013-01-17 20:25:00,55.7,47.2,30.11,North,349,2.0,5.0,73,0.00,,,0.02,Wunderground v.1.15,2013-01-18 01:25:00,
2013-01-17 20:30:00,55.6,47.1,30.11,WSW,246,2.0,2.0,73,0.00,,,0.02,Wunderground v.1.15,2013-01-18 01:30:00,
2013-01-17 20:35:00,55.5,47.0,30.11,WSW,243,2.0,2.0,73,0.00,,,0.02,Wunderground v.1.15,2013-01-18 01:35:00,
2013-01-17 20:40:00,55.4,46.9,30.11,East,80,2.0,2.0,73,0.00,,,0.02,Wunderground v.1.15,2013-01-18 01:40:00,
2013-01-17 20:50:00,55.1,46.6,30.12,WSW,243,2.0,3.0,73,0.00,,,0.02,Wunderground v.1.15,2013-01-18 01:50:00,
2013-01-17 20:55:00,55.1,46.6,30.12,NNW,345,2.0,3.0,73,0.00,,,0.02,Wunderground v.1.15,2013-01-18 01:55:00,
2013-01-17 21:00:00,55.0,46.5,30.12,West,272,2.0,4.0,73,0.00,,,0.02,Wunderground v.1.15,2013-01-18 02:00:00,
2013-01-17 21:05:00,54.9,46.4,30.12,NNE,18,2.0,10.0,73,0.00,,,0.02,Wunderground v.1.15,2013-01-18 02:05:00,
2013-01-17 21:10:00,54.7,46.2,30.12,WSW,246,2.0,2.0,73,0.00,,,0.02,Wunderground v.1.15,2013-01-18 02:10:00,
2013-01-17 21:20:00,54.5,46.0,30.12,SSW,205,2.0,2.0,73,0.00,,,0.02,Wunderground v.1.15,2013-01-18 02:20:00,
2013-01-17 21:25:00,54.2,45.7,30.12,North,11,2.0,2.0,73,0.00,,,0.02,Wunderground v.1.15,2013-01-18 02:25:00,
2013-01-17 21:30:00,53.9,45.8,30.12,NW,317,2.0,2.0,74,0.00,,,0.02,Wunderground v.1.15,2013-01-18 02:30:00,
2013-01-17 21:35:00,53.7,45.6,30.13,WSW,242,2.0,2.0,74,0.00,,,0.02,Wunderground v.1.15,2013-01-18 02:35:00,
2013-01-17 21:40:00,53.6,45.9,30.13,North,352,2.0,2.0,75,0.00,,,0.02,Wunderground v.1.15,2013-01-18 02:40:00,
2013-01-17 21:45:00,53.4,45.7,30.13,ESE,114,2.0,2.0,75,0.00,,,0.02,Wunderground v.1.15,2013-01-18 02:45:00,
2013-01-17 21:55:00,52.9,45.5,30.13,NNE,31,1.0,6.0,76,0.00,,,0.02,Wunderground v.1.15,2013-01-18 02:55:00,
2013-01-17 22:00:00,52.6,45.2,30.13,North,5,2.0,3.0,76,0.00,,,0.02,Wunderground v.1.15,2013-01-18 03:00:00,
2013-01-17 22:05:00,52.3,45.0,30.13,NW,322,2.0,11.0,76,0.00,,,0.02,Wunderground v.1.15,2013-01-18 03:05:00,
2013-01-17 22:10:00,52.1,44.4,30.13,NNE,32,2.0,11.0,75,0.00,,,0.02,Wunderground v.1.15,2013-01-18 03:10:00,
2013-01-17 22:15:00,51.9,44.2,30.13,WNW,288,3.0,11.0,75,0.00,,,0.02,Wunderground v.1.15,2013-01-18 03:15:00,
2013-01-17 22:25:00,51.6,44.3,30.14,WSW,243,3.0,3.0,76,0.00,,,0.02,Wunderground v.1.15,2013-01-18 03:25:00,
2013-01-17 22:30:00,51.4,44.1,30.13,NE,44,2.0,2.0,76,0.00,,,0.02,Wunderground v.1.15,2013-01-18 03:30:00,
2013-01-17 22:35:00,51.2,43.9,30.13,NNW,330,2.0,2.0,76,0.00,,,0.02,Wunderground v.1.15,2013-01-18 03:35:00,
2013-01-17 22:40:00,51.0,43.7,30.13,WSW,245,2.0,3.0,76,0.00,,,0.02,Wunderground v.1.15,2013-01-18 03:40:00,
2013-01-17 22:45:00,50.9,43.9,30.14,NNW,345,2.0,3.0,77,0.00,,,0.02,Wunderground v.1.15,2013-01-18 03:45:00,
2013-01-17 22:50:00,50.7,43.8,30.14,NNW,335,2.0,2.0,77,0.00,,,0.02,Wunderground v.1.15,2013-01-18 03:50:00,
2013-01-17 22:55:00,50.6,43.7,30.14,NNE,19,2.0,2.0,77,0.00,,,0.02,Wunderground v.1.15,2013-01-18 03:55:00,
2013-01-17 23:00:00,50.4,43.8,30.14,North,356,1.0,1.0,78,0.00,,,0.02,Wunderground v.1.15,2013-01-18 04:00:00,
2013-01-17 23:05:00,50.3,43.7,30.14,NW,309,1.0,2.0,78,0.00,,,0.02,Wunderground v.1.15,2013-01-18 04:05:00,
2013-01-17 23:14:00,50.0,43.1,30.14,NW,312,2.0,9.0,77,0.00,,,0.02,Wunderground v.1.15,2013-01-18 04:14:00,
2013-01-17 23:19:00,49.7,42.4,30.14,WNW,283,3.0,9.0,76,0.00,,,0.02,Wunderground v.1.15,2013-01-18 04:19:00,
2013-01-17 23:25:00,49.5,41.9,30.14,NW,311,3.0,9.0,75,0.00,,,0.02,Wunderground v.1.15,2013-01-18 04:25:00,
2013-01-17 23:30:00,49.3,42.1,30.14,West,280,3.0,3.0,76,0.00,,,0.02,Wunderground v.1.15,2013-01-18 04:30:00,
2013-01-17 23:35:00,49.1,41.9,30.14,West,276,2.0,3.0,76,0.00,,,0.02,Wunderground v.1.15,2013-01-18 04:35:00,
2013-01-17 23:40:00,48.9,42.0,30.14,NNW,346,2.0,2.0,77,0.00,,,0.02,Wunderground v.1.15,2013-01-18 04:40:00,
2013-01-17 23:45:00,48.7,41.5,30.15,NNW,333,2.0,3.0,76,0.00,,,0.02,Wunderground v.1.15,2013-01-18 04:45:00,
2013-01-17 23:50:00,48.6,41.4,30.15,WSW,246,2.0,2.0,76,0.00,,,0.02,Wunderground v.1.15,2013-01-18 04:50:00,